| time (UTC) | temp F | wind direction | speed MPH | gust MPH | rain 1hr in | rain 24hr in | rain mn in | humidity % | barometer mb |
| 20260504011505 | 85 | 254 | 5.0 | 13.0 | 0.00 | 0.00 | 0.00 | 12 | 1002.5 |
| 20260504010004 | 85 | 247 | 5.0 | 11.0 | 0.00 | 0.00 | 0.00 | 12 | 1002.7 |
| 20260504004509 | 86 | 293 | 4.0 | 9.0 | 0.00 | 0.00 | 0.00 | 13 | 1002.7 |
| 20260504003003 | 87 | 294 | 4.0 | 12.0 | 0.00 | 0.00 | 0.00 | 13 | 1002.5 |
| 20260504001507 | 88 | 267 | 4.0 | 13.0 | 0.00 | 0.00 | 0.00 | 14 | 1002.4 |
| 20260504000002 | 89 | 237 | 5.0 | 13.0 | 0.00 | 0.00 | 0.00 | 14 | 1002.3 |
| 20260503234501 | 89 | 319 | 4.0 | 11.0 | 0.00 | 0.00 | 0.00 | 14 | 1001.9 |
| 20260503233109 | 89 | 338 | 3.0 | 10.0 | 0.00 | 0.00 | 0.00 | 15 | 1001.9 |
| 20260503231558 | 90 | 328 | 3.0 | 11.0 | 0.00 | 0.00 | 0.00 | 15 | 1002.1 |
| 20260503230111 | 89 | 275 | 3.0 | 12.0 | 0.00 | 0.00 | 0.00 | 14 | 1002.1 |
| 20260503224555 | 90 | 302 | 4.0 | 10.0 | 0.00 | 0.00 | 0.00 | 15 | 1002.4 |
| 20260503223109 | 90 | 273 | 3.0 | 6.0 | 0.00 | 0.00 | 0.00 | 15 | 1002.4 |
| 20260503221553 | 88 | 91 | 2.0 | 3.0 | 0.00 | 0.00 | 0.00 | 17 | 1002.6 |
| 20260503220146 | 86 | 322 | 3.0 | 6.0 | 0.00 | 0.00 | 0.00 | 24 | 1002.6 |
| 20260503214553 | 85 | 314 | 0.0 | 4.0 | 0.00 | 0.00 | 0.00 | 24 | 1002.9 |
| 20260503213043 | 85 | 286 | 0.0 | 4.0 | 0.00 | 0.00 | 0.00 | 24 | 1003.3 |
| 20260503211537 | 85 | 91 | 1.0 | 6.0 | 0.00 | 0.00 | 0.00 | 24 | 1003.6 |
| 20260503210034 | 85 | 132 | 1.0 | 5.0 | 0.00 | 0.00 | 0.00 | 25 | 1003.8 |
| 20260503204536 | 84 | 128 | 0.0 | 7.0 | 0.00 | 0.00 | 0.00 | 27 | 1004.1 |
| 20260503203030 | 85 | 124 | 0.0 | 1.0 | 0.00 | 0.00 | 0.00 | 23 | 1004.3 |
| 20260503201528 | 84 | 152 | 1.0 | 7.0 | 0.00 | 0.00 | 0.00 | 23 | 1004.6 |
| 20260503200025 | 85 | 260 | 0.0 | 8.0 | 0.00 | 0.00 | 0.00 | 22 | 1004.9 |
| 20260503194523 | 85 | 99 | 1.0 | 5.0 | 0.00 | 0.00 | 0.00 | 22 | 1004.9 |
| 20260503193020 | 84 | 234 | 2.0 | 5.0 | 0.00 | 0.00 | 0.00 | 24 | 1005.1 |
| 20260503191516 | 84 | 146 | 3.0 | 6.0 | 0.00 | 0.00 | 0.00 | 25 | 1005.2 |
| 20260503190016 | 83 | 248 | 2.0 | 6.0 | 0.00 | 0.00 | 0.00 | 26 | 1005.4 |
| 20260503184512 | 82 | 285 | 0.0 | 5.0 | 0.00 | 0.00 | 0.00 | 28 | 1005.8 |
| 20260503183008 | 82 | 104 | 1.0 | 4.0 | 0.00 | 0.00 | 0.00 | 28 | 1006.1 |
| 20260503181520 | 81 | 98 | 1.0 | 5.0 | 0.00 | 0.00 | 0.00 | 28 | 1006.4 |
| 20260503180014 | 81 | 129 | 0.0 | 3.0 | 0.00 | 0.00 | 0.00 | 28 | 1006.4 |
| 20260503174504 | 81 | 99 | 0.0 | 5.0 | 0.00 | 0.00 | 0.00 | 30 | 1006.6 |
| 20260503173002 | 81 | 119 | 1.0 | 3.0 | 0.00 | 0.00 | 0.00 | 30 | 1006.8 |
| 20260503171600 | 80 | 121 | 0.0 | 3.0 | 0.00 | 0.00 | 0.00 | 30 | 1006.7 |
| 20260503170113 | 80 | 250 | 1.0 | 4.0 | 0.00 | 0.00 | 0.00 | 30 | 1006.8 |
| 20260503081557 | 75 | 100 | 0.0 | 7.0 | 0.00 | 0.00 | 0.00 | 32 | 1006.4 |
| 20260503071649 | 75 | 93 | 4.0 | 9.0 | 0.00 | 0.00 | 0.00 | 31 | 1006.6 |
| 20260503054540 | 77 | 79 | 4.0 | 11.0 | 0.00 | 0.00 | 0.00 | 30 | 1005.8 |
| 20260503053038 | 76 | 318 | 5.0 | 14.0 | 0.00 | 0.00 | 0.00 | 30 | 1005.8 |
| 20260503051537 | 76 | 316 | 4.0 | 10.0 | 0.00 | 0.00 | 0.00 | 30 | 1006.0 |
| 20260503050037 | 76 | 316 | 4.0 | 11.0 | 0.00 | 0.00 | 0.00 | 30 | 1006.0 |
| 20260503044549 | 77 | 90 | 4.0 | 13.0 | 0.00 | 0.00 | 0.00 | 29 | 1005.9 |
| 20260503043037 | 77 | 52 | 5.0 | 12.0 | 0.00 | 0.00 | 0.00 | 28 | 1005.7 |
| 20260503041537 | 77 | 53 | 3.0 | 11.0 | 0.00 | 0.00 | 0.00 | 28 | 1005.4 |
| 20260503040046 | 77 | 108 | 3.0 | 13.0 | 0.00 | 0.00 | 0.00 | 27 | 1005.1 |
| 20260503034535 | 78 | 94 | 4.0 | 10.0 | 0.00 | 0.00 | 0.00 | 27 | 1005.0 |
| 20260503033041 | 78 | 48 | 5.0 | 13.0 | 0.00 | 0.00 | 0.00 | 26 | 1005.0 |
| 20260503031533 | 79 | 308 | 4.0 | 12.0 | 0.00 | 0.00 | 0.00 | 26 | 1004.9 |
| 20260503030035 | 79 | 72 | 4.0 | 8.0 | 0.00 | 0.00 | 0.00 | 25 | 1004.7 |
| 20260503024536 | 79 | 119 | 2.0 | 8.0 | 0.00 | 0.00 | 0.00 | 25 | 1004.5 |
| 20260503023030 | 80 | 72 | 3.0 | 7.0 | 0.00 | 0.00 | 0.00 | 24 | 1004.5 |
| 20260503021531 | 81 | 75 | 2.0 | 7.0 | 0.00 | 0.00 | 0.00 | 24 | 1004.5 |
| 20260503020030 | 82 | 68 | 3.0 | 7.0 | 0.00 | 0.00 | 0.00 | 22 | 1004.5 |
| 20260503014531 | 82 | 117 | 2.0 | 8.0 | 0.00 | 0.00 | 0.00 | 21 | 1004.5 |
| 20260503013029 | 83 | 101 | 0.0 | 4.0 | 0.00 | 0.00 | 0.00 | 21 | 1004.4 |